Location: Karcze
(52.0945°N, 22.4786°E)
Time: 02:21:14
(UTC+00:00)

Transit 2A Rocket - Pass Details

Date: 30 July 2021
Orbit: 586 x 917 km, 66.7° (Epoch: 27 September)

Event Time Altitude Azimuth Distance (km) Brightness Sun altitude
Rises 17:02:42 0° 297° (WNW) 3,022 10.1 10.5°
Reaches altitude 10° 17:05:50 10° 319° (NW) 2,174 8.5 10.0°
Maximum altitude 17:08:52 16° 357° (N) 1,864 7.4 9.6°
Drops below altitude 10° 17:12:04 10° 35° (NE) 2,311 7.4 9.1°
Sets 17:15:34 0° 57° (ENE) 3,315 7.9 8.6°
